Weather reports worldwide

Advertisment
Troyes, France (7168): temperature & dewpoint: 20.10.2020 10:00:00 - 26.10.2020 10:00:00 (CET)Troyes, France (7168): temperature 5cm: 20.10.2020 10:00:00 - 26.10.2020 10:00:00 (CET)Troyes, France (7168): temperature -20cm & temperature -100cm: 20.10.2020 10:00:00 - 26.10.2020 10:00:00 (CET)Troyes, France (7168): wind speed & gusts: 20.10.2020 10:00:00 - 26.10.2020 10:00:00 (CET)Troyes, France (7168): wind direction: 20.10.2020 10:00:00 - 26.10.2020 10:00:00 (CET)Troyes, France (7168): reduced air pressure: 20.10.2020 10:00:00 - 26.10.2020 10:00:00 (CET)Troyes, France (7168): visibility: 20.10.2020 10:00:00 - 26.10.2020 10:00:00 (CET)Troyes, France (7168): sunshine duration: 20.10.2020 10:00:00 - 26.10.2020 10:00:00 (CET)Troyes, France (7168): precipitation: 20.10.2020 10:00:00 - 26.10.2020 10:00:00 (CET)
Date & Time tt [°C] td [°C] tt 5cm [°C] tt -20cm [°C] tt -100cm [°C] ff [km/h] ff [kn] fx [km/h] fx [kn] dd ppp [hPa] vv [km] sd [min] rr [mm]
26.10.2020 10:00:00 11,0 7,9 9,5 13,0 15,0 27 14 37 20 SW 1007,0 20 60 0,2
26.10.2020 09:00:00 9,0 7,3 5,7 13,1 15,0 18 10 23 13 SSW 1007,2 20 6 0,0
26.10.2020 08:00:00 6,9 5,8 5,4 13,2 15,0 12 6 15 8 S 1006,9 20 0 0,0
26.10.2020 07:00:00 8,1 6,9 6,8 13,2 15,0 11 6 18 10 S 1005,9 20 0 0,0
26.10.2020 06:00:00 8,7 7,3 7,7 13,3 15,0 15 8 18 10 S 1005,7 20 0 0,0
26.10.2020 05:00:00 9,3 7,9 7,6 13,3 15,0 8 4 14 8 SSW 1005,0 20 0 0,0
26.10.2020 04:00:00 9,4 8,2 6,9 13,4 15,1 10 5 16 8 SSW 1004,8 20 0 0,0
26.10.2020 03:00:00 9,2 7,6 8,2 13,4 15,0 9 5 14 8 S 1005,0 20 0 0,0
26.10.2020 02:00:00 9,4 7,8 8,4 13,5 15,0 9 5 18 10 S 1004,7 20 0 0,0
26.10.2020 01:00:00 9,9 8,0 8,9 13,5 15,0 13 7 24 13 SW 1003,9 20 0 0,0
26.10.2020 00:00:00 10,4 8,3 9,3 13,5 15,0 13 7 25 13 SW 1004,3 20 0 0,0
25.10.2020 23:00:00 10,8 8,7 9,8 13,6 15,0 15 8 23 13 SW 1004,4 20 0 0,8
25.10.2020 22:00:00 11,1 9,8 10,4 13,6 15,0 7 4 14 8 S 1004,9 10 0 0,4
25.10.2020 21:00:00 11,0 9,6 9,9 13,6 15,0 13 7 22 12 S 1004,6 20 0 0,0
25.10.2020 20:00:00 11,2 9,8 10,3 13,6 15,0 13 7 23 13 S 1004,3 20 0 0,0
25.10.2020 19:00:00 11,6 10,0 10,8 13,7 15,0 16 9 24 13 S 1005,1 20 0 0,0
25.10.2020 18:00:00 11,7 9,9 10,8 13,7 15,0 17 9 27 15 S 1004,8 20 0 0,0
25.10.2020 17:00:00 11,7 9,9 10,9 13,7 15,0 18 10 41 22 S 1004,7 20 0 0,0
25.10.2020 16:00:00 11,7 9,9 10,9 13,7 15,0 27 15 40 21 S 1004,6 20 0 0,4
25.10.2020 15:00:00 11,8 10,0 11,1 13,7 15,0 18 10 27 15 S 1005,1 20 0 0,2
25.10.2020 14:00:00 11,8 10,5 11,3 13,7 15,0 16 8 24 13 S 1005,6 8 0 1,2
25.10.2020 13:00:00 12,0 10,2 11,3 13,7 15,0 17 9 32 18 S 1005,7 20 0 0,4
25.10.2020 12:00:00 12,2 10,3 11,2 13,7 15,0 17 9 35 19 SSW 1006,6 20 0 0,4
25.10.2020 11:00:00 12,3 10,0 11,0 13,7 15,0 22 12 38 20 S 1006,7 9 0 0,8
25.10.2020 10:00:00 12,0 9,7 10,7 13,8 15,0 19 11 32 17 S 1006,3 18 0 1,6
25.10.2020 09:00:00 12,9 8,6 11,4 13,8 15,0 17 9 26 14 S 1006,4 20 0 0,0
25.10.2020 08:00:00 12,9 8,2 12,0 13,9 15,0 18 10 27 14 S 1006,2 20 0 0,0
25.10.2020 07:00:00 13,1 8,2 12,0 13,9 15,0 18 10 29 15 S 1006,7 20 0 0,0
25.10.2020 06:00:00 12,6 8,3 11,4 14,0 15,0 16 9 25 13 S 1007,2 20 0 0,0
25.10.2020 05:00:00 12,2 8,5 11,5 14,1 15,0 14 8 36 19 SSE 1007,1 20 0 0,0
25.10.2020 04:00:00 12,3 8,4 11,0 14,1 15,0 26 14 38 20 S 1007,1 20 0 0,0
25.10.2020 03:00:00 11,9 8,6 11,1 14,2 15,0 28 15 35 19 S 1008,3 20 0 0,0
25.10.2020 02:00:00 12,3 8,9 11,5 14,2 15,0 25 13 32 17 S 1009,2 20 0 0,0
25.10.2020 01:00:00 - - - - - - - - - - - - - -
25.10.2020 00:00:00 13,0 9,4 11,6 14,3 15,0 19 10 29 16 SSE 1010,8 20 0 0,0
24.10.2020 23:00:00 13,0 9,8 11,8 14,4 15,0 14 7 25 14 SSE 1011,7 20 0 0,0
24.10.2020 22:00:00 13,6 10,4 12,6 14,4 15,0 19 10 29 15 S 1012,0 20 0 0,0
24.10.2020 21:00:00 13,8 10,8 13,0 14,4 15,0 21 11 40 21 S 1012,7 20 0 0,0
24.10.2020 20:00:00 14,1 11,3 13,3 14,4 15,0 25 14 38 20 S 1013,2 20 0 0,0
24.10.2020 19:00:00 14,4 11,5 13,7 14,3 15,0 23 12 33 18 S 1014,0 20 0 0,0
24.10.2020 18:00:00 14,3 12,0 13,6 14,3 15,0 21 11 36 19 S 1014,4 20 0 0,0
24.10.2020 17:00:00 14,8 11,9 14,0 14,3 15,0 19 11 33 18 S 1014,7 19 0 0,0
24.10.2020 16:00:00 15,2 12,0 15,2 14,2 15,0 28 15 41 22 S 1015,0 20 0 0,0
24.10.2020 15:00:00 15,5 11,9 16,0 14,2 15,0 26 14 42 23 S 1015,4 20 8 0,0
24.10.2020 14:00:00 15,6 11,4 15,8 14,1 15,0 32 17 48 26 S 1015,8 20 0 0,0
24.10.2020 13:00:00 15,1 11,1 15,4 14,1 15,0 32 17 47 25 SSW 1016,6 20 0 0,0
24.10.2020 12:00:00 15,0 11,2 14,9 14,1 15,0 32 17 45 24 SSW 1017,1 20 2 0,0
24.10.2020 11:00:00 14,2 11,4 13,9 14,1 15,0 22 12 34 18 S 1017,4 20 0 0,0
24.10.2020 10:00:00 13,5 11,0 13,3 14,1 15,0 21 11 33 18 S 1017,6 20 0 0,0
24.10.2020 09:00:00 12,8 10,5 11,9 14,2 15,0 17 9 25 13 S 1017,9 20 11 0,0
24.10.2020 08:00:00 11,6 9,5 10,5 14,2 15,0 12 6 20 11 SSE 1017,5 20 10 0,0
24.10.2020 07:00:00 11,7 9,4 10,5 14,3 15,0 13 7 20 11 SSE 1017,5 20 0 0,0
24.10.2020 06:00:00 11,1 8,8 9,7 14,3 14,9 11 6 17 9 S 1017,8 20 0 0,0
24.10.2020 05:00:00 11,6 9,0 10,1 14,4 15,0 9 5 31 17 S 1017,7 20 0 0,0
24.10.2020 04:00:00 12,4 9,4 11,4 14,4 14,9 21 11 28 15 SW 1017,7 20 0 0,0
24.10.2020 03:00:00 12,9 10,4 12,2 14,4 15,0 12 6 23 12 W 1017,8 20 0 0,0
24.10.2020 02:00:00 13,5 10,8 12,7 14,5 15,0 16 9 34 18 WSW 1017,5 20 0 0,0
24.10.2020 01:00:00 13,6 11,5 11,9 14,5 15,0 20 11 32 17 SW 1017,2 20 0 0,2
24.10.2020 00:00:00 12,4 11,0 11,5 14,6 15,0 10 5 25 14 SSW 1017,3 20 0 0,0
23.10.2020 23:00:00 12,7 11,4 11,3 14,7 14,9 16 9 26 14 SSW 1016,8 20 0 0,0
23.10.2020 22:00:00 12,1 11,2 10,8 14,7 15,0 16 8 22 12 SSW 1016,6 15 0 0,0
23.10.2020 21:00:00 12,6 11,5 10,3 14,7 14,9 14 7 19 11 SW 1016,1 19 0 0,0
23.10.2020 20:00:00 12,1 10,8 9,3 14,8 15,0 10 6 22 12 SSW 1015,8 15 0 0,0
23.10.2020 19:00:00 12,4 11,0 10,3 14,8 15,0 9 5 15 8 S 1015,1 18 0 0,0
23.10.2020 18:00:00 14,6 12,5 13,9 14,7 14,9 11 6 25 13 SW 1014,4 20 14 0,0
23.10.2020 17:00:00 15,9 12,5 15,2 14,6 14,9 15 8 25 13 WSW 1013,5 20 0 0,0
23.10.2020 16:00:00 16,6 13,5 16,3 14,5 14,9 15 8 27 14 W 1013,5 20 0 0,0
23.10.2020 15:00:00 17,1 13,6 15,9 14,4 14,9 19 10 31 17 W 1012,9 20 1 0,0
23.10.2020 14:00:00 17,2 13,9 16,3 14,4 14,9 17 9 31 17 WSW 1012,7 20 10 0,0
23.10.2020 13:00:00 17,1 14,6 15,3 14,4 15,0 13 7 19 10 SW 1012,7 20 2 0,4
23.10.2020 12:00:00 16,1 13,9 15,0 14,3 14,9 13 7 20 11 SSW 1013,3 20 0 0,0
23.10.2020 11:00:00 15,3 13,5 14,8 14,4 14,9 12 7 21 11 S 1013,4 20 0 0,0
23.10.2020 10:00:00 15,1 13,5 14,5 14,4 14,9 7 4 11 6 SSE 1013,0 20 0 0,0
23.10.2020 09:00:00 14,4 13,3 13,5 14,4 14,9 3 2 15 8 SSW 1013,0 20 0 0,0
23.10.2020 08:00:00 13,9 12,8 13,2 14,4 14,9 10 5 19 11 S 1012,6 20 0 0,4
23.10.2020 07:00:00 13,8 12,9 13,2 14,4 14,9 13 7 18 10 SSE 1012,0 8 0 2,4
23.10.2020 06:00:00 14,1 13,0 13,5 14,4 14,9 14 7 22 12 S 1012,7 13 0 1,0
23.10.2020 05:00:00 14,0 13,0 13,1 14,5 14,9 17 9 22 12 S 1012,6 12 0 0,8
23.10.2020 04:00:00 13,7 12,6 13,0 14,5 14,9 16 8 20 11 S 1012,8 20 0 0,2
23.10.2020 03:00:00 13,8 12,7 13,2 14,5 14,9 11 6 15 8 SSE 1013,1 3,4 0 0,2
23.10.2020 02:00:00 14,0 12,9 13,3 14,5 14,9 9 5 19 10 SSE 1013,6 20 0 1,6
23.10.2020 01:00:00 14,6 13,3 13,9 14,5 14,9 16 9 31 17 SSW 1014,2 12 0 2,5
23.10.2020 00:00:00 14,6 13,6 13,9 14,5 14,9 11 6 22 12 S 1014,0 4,2 0 3,4
22.10.2020 23:00:00 14,6 13,3 13,9 14,5 14,9 13 7 29 16 SSE 1013,9 20 0 1,2
22.10.2020 22:00:00 14,7 13,1 13,9 14,5 14,9 21 12 29 16 S 1013,9 20 0 0,0
22.10.2020 21:00:00 14,8 13,5 14,1 14,5 14,9 18 10 31 17 SSE 1014,0 20 0 0,4
22.10.2020 20:00:00 15,2 13,4 14,4 14,5 14,9 11 6 34 18 SSE 1013,9 20 0 0,6
22.10.2020 19:00:00 15,9 13,4 15,3 14,4 14,9 16 9 24 13 S 1014,4 20 0 0,0
22.10.2020 18:00:00 16,5 12,6 15,9 14,4 14,9 16 9 33 18 S 1013,7 20 0 0,0
22.10.2020 17:00:00 18,1 13,8 17,6 14,3 14,9 13 7 21 12 S 1013,6 20 0 0,0
22.10.2020 16:00:00 18,8 13,9 18,3 14,2 14,9 18 10 30 16 S 1013,4 20 0 0,0
22.10.2020 15:00:00 19,8 13,9 18,6 14,1 14,9 23 12 32 17 S 1013,0 20 0 0,0
22.10.2020 14:00:00 18,6 14,3 17,8 14,0 14,9 14 8 26 14 S 1013,5 20 0 0,0
22.10.2020 13:00:00 19,6 13,8 19,0 13,9 14,9 18 10 26 14 S 1013,6 20 0 0,0
22.10.2020 12:00:00 19,3 13,7 19,7 13,9 14,9 18 10 34 18 S 1013,9 20 29 0,0
22.10.2020 11:00:00 19,2 13,6 18,1 13,9 14,9 24 13 30 16 S 1013,8 20 56 0,0
22.10.2020 10:00:00 16,7 12,8 13,9 13,9 14,9 16 9 22 12 S 1014,0 20 12 0,0
22.10.2020 09:00:00 14,2 11,9 12,6 14,0 15,0 16 8 19 10 S 1013,9 20 0 0,0
22.10.2020 08:00:00 13,5 11,5 11,6 14,0 14,9 16 9 20 11 S 1013,6 20 0 0,0
22.10.2020 07:00:00 13,1 11,5 12,0 14,0 14,9 17 9 23 13 S 1013,1 20 0 0,0
22.10.2020 06:00:00 14,0 12,0 12,8 14,0 14,9 19 10 29 16 S 1012,8 20 0 0,0
22.10.2020 05:00:00 14,2 12,4 13,2 14,0 14,9 21 11 38 21 S 1012,7 20 0 0,0
22.10.2020 04:00:00 15,1 13,1 14,1 14,1 15,0 24 13 37 20 SSE 1011,9 20 0 0,6
22.10.2020 03:00:00 15,3 13,3 14,3 14,0 14,9 12 6 27 14 SW 1013,4 20 0 0,0
22.10.2020 02:00:00 15,2 13,2 14,3 14,0 14,9 22 12 30 16 S 1012,7 20 0 0,0
22.10.2020 01:00:00 15,5 13,0 15,0 14,0 14,9 21 11 27 15 S 1012,3 20 0 0,0
22.10.2020 00:00:00 15,5 13,0 14,6 14,0 15,0 16 9 29 16 S 1012,0 20 0 0,0
21.10.2020 23:00:00 15,5 13,3 14,7 14,0 15,0 24 13 34 19 S 1011,8 20 0 0,2
21.10.2020 22:00:00 16,8 12,9 15,8 14,0 15,0 27 14 38 20 S 1011,5 20 0 0,0
21.10.2020 21:00:00 16,7 13,6 16,1 13,9 15,0 21 12 35 19 S 1011,0 20 0 0,0
21.10.2020 20:00:00 17,0 13,3 16,3 13,9 15,0 18 10 27 14 S 1010,3 20 0 0,0
21.10.2020 19:00:00 17,5 13,4 16,7 13,8 15,0 17 9 22 12 S 1009,7 20 0 0,0
21.10.2020 18:00:00 18,2 13,5 16,7 13,7 15,0 14 7 19 10 SW 1008,4 20 0 0,0
21.10.2020 17:00:00 19,1 13,7 18,3 13,5 15,0 16 8 40 22 SW 1007,6 20 26 0,0
21.10.2020 16:00:00 20,5 13,5 20,5 13,4 15,0 27 15 54 29 SSW 1007,0 20 30 0,0
21.10.2020 15:00:00 23,0 12,0 22,8 13,2 15,0 33 18 57 31 SSW 1005,8 20 51 0,0
21.10.2020 14:00:00 23,2 12,2 24,5 13,1 15,0 33 18 60 33 SSW 1005,2 20 60 0,0
21.10.2020 13:00:00 22,9 11,9 23,2 13,0 15,0 33 18 61 33 S 1004,9 20 60 0,0
21.10.2020 12:00:00 21,7 11,4 20,3 12,9 15,0 37 20 61 33 S 1005,0 20 44 0,0
21.10.2020 11:00:00 19,7 10,9 17,3 12,9 15,0 28 15 48 26 S 1005,0 20 17 0,0
21.10.2020 10:00:00 17,7 10,1 16,6 12,9 15,0 26 14 42 23 S 1004,6 20 0 0,0
21.10.2020 09:00:00 17,3 9,5 15,7 12,9 15,0 27 14 51 28 SSE 1003,9 20 0 0,0
21.10.2020 08:00:00 16,9 9,3 15,4 12,9 15,0 31 17 51 28 SSE 1003,3 20 0 0,0
21.10.2020 07:00:00 16,3 9,5 13,6 12,9 15,0 27 15 42 23 S 1003,3 20 0 0,0
21.10.2020 06:00:00 15,4 9,3 12,6 12,8 15,0 18 10 28 15 SE 1003,6 20 0 0,0
21.10.2020 05:00:00 14,8 9,8 12,3 12,8 15,0 14 8 27 14 SSE 1003,7 20 0 0,0
21.10.2020 04:00:00 13,6 10,2 11,7 12,9 15,0 13 7 23 12 SE 1003,8 20 0 0,0
21.10.2020 03:00:00 13,0 10,2 11,5 12,8 15,0 11 6 24 13 SSE 1005,1 20 0 0,2
21.10.2020 02:00:00 13,6 9,4 11,5 12,8 15,0 17 9 23 13 SE 1006,0 20 0 0,4
21.10.2020 01:00:00 13,7 9,1 11,5 12,8 15,0 7 4 19 10 SSE 1006,8 20 0 0,2
21.10.2020 00:00:00 13,8 9,4 12,1 12,8 15,0 15 8 28 15 S 1007,0 20 0 0,0
20.10.2020 23:00:00 14,7 9,5 12,4 12,8 15,0 21 12 32 18 S 1007,3 20 0 0,0
20.10.2020 22:00:00 14,8 10,4 13,1 12,7 15,0 21 12 30 16 S 1007,6 20 0 0,0
20.10.2020 21:00:00 14,6 11,2 13,3 12,7 15,1 12 7 19 11 SSE 1007,8 20 0 0,0
20.10.2020 20:00:00 14,5 11,5 12,9 12,7 15,1 11 6 16 8 SSE 1008,6 20 0 0,0
20.10.2020 19:00:00 14,1 12,1 12,6 12,6 15,0 10 5 18 10 SSE 1009,6 20 0 0,0
20.10.2020 18:00:00 13,9 12,1 12,8 12,6 15,1 6 3 15 8 S 1010,3 16 0 0,0
20.10.2020 17:00:00 14,6 12,3 13,6 12,5 15,1 8 4 16 8 SSE 1010,8 20 0 0,0
20.10.2020 16:00:00 14,6 12,3 13,6 12,4 15,1 12 6 16 9 SSE 1011,3 15 0 0,6
20.10.2020 15:00:00 14,8 12,5 13,9 12,4 15,1 11 6 15 8 S 1011,7 19 0 0,4
20.10.2020 14:00:00 15,5 11,5 14,4 12,3 15,0 13 7 18 10 S 1011,5 10 0 0,0
20.10.2020 13:00:00 15,7 10,9 15,2 12,2 15,1 13 7 25 13 S 1012,0 20 0 0,0
20.10.2020 12:00:00 15,6 10,1 13,9 12,2 15,1 18 10 32 17 S 1012,2 20 0 0,0
20.10.2020 11:00:00 14,8 9,4 14,3 12,2 15,1 24 13 32 18 S 1012,4 20 0 0,0
20.10.2020 10:00:00 14,3 8,9 12,7 12,2 15,1 20 11 29 16 S 1011,8 20 0 0,0

tt = temperature
td = dewpoint
tt 5cm = temperature 5cm
tt -20cm = temperature -20cm
tt -100cm = temperature -100cm
ff = wind speed
fx = gusts
dd = wind direction
ppp = reduced air pressure
vv = visibility
sd = sunshine duration
rr = precipitation

Next stations